OBJECT F

Satellite information

Favourite Embed

Satellite Type and Status

UNKNOWNIN ORBIT

Key statistics

Satellite OBJECT F at a glance.

Uptime

211

Days in orbit

Revolutions

≈ 15.2

Per day

Orbit

SSO

Sun Synchronous Orbit

Inclination

97.4

Latest

Satellite identification and parameters

Extended collection of information and parameters for OBJECT F.

Object identification

Identified? True

Debris? False

Object name: OBJECT F

International designator: 2025-103F

Object number (NORAD): 64053

Object ID (CCSDS): 64053

Country: PEOPLES REPUBLIC OF CHINA (PRC)

Current information (Y/N): Y

RCS size: MEDIUM

Orbital parameters

Period: 94.905 minutes

Inclination: 97.403 deg

SMA: 6892.116 km

Apoapsis: 517.296 km

Periapsis: 510.666 km

RAAN: 57.1062 deg

Eccentricy: 0.00048104

Argument of periapsis: 98.1171 deg

Mean anomaly: 262.0608 deg

Mean motion: 15.17308475 rev/day

Mean motion (dot): 0.00007013 rev/day2

B* drag term: 0.00035496054 1/REarth

Two-line elements (TLE)

Creation date: Dec. 12, 2025, 10:14 a.m.

Reference frame: TEME

Reference center: EARTH

Epoch: Dec. 12, 2025, 7:29 a.m. UTC

TLE line 0: 0 OBJECT F

TLE line 1: 1 64053U 25103F 25346.31214262 .00007013 00000-0 35496-3 0 9991

TLE line 2: 2 64053 97.4030 57.1062 0004810 98.1171 262.0608 15.17308475 31698

Live tracking on map

Real-time ground track for satellite OBJECT F.

In-orbit conjunctions

There are no conjunctions computed for OBJECT F, at the moment. Check back to stay up to date, as we update our databases every day.

Go to all conjunctions

Associated space launch

6 satellites from satellite manufacturer SpaceTY, including 3 multi-spectral Earth observation satellites and 3 technology demonstration satellites for various academic institutions. * Tianyi-29 * Tianyi-34 * Tianyi-35 * Tianyi-42 * Tianyi-45 * Tianyi-46

OBJECT F was lifted into orbit during the mission ‘Zhuque-2E | 6 satellites’, on board a Zhuque-2E space rocket.

The launch took place on May 17, 2025, 4:12 a.m. from Launch Area 96.

For more information about the launch, click the button.

Launch to space Zhuque-2E | 6 satellites
Zhuque-2E | 6 satellites

Agency: N/A

Status: Launch Successful

Launch date: May 17, 2025, 4:12 a.m. UTC

Rocket: Zhuque-2E

Launch pad: Launch Area 96

Location: Jiuquan Satellite Launch Center, People's Republic of China

...

Latest news about this satellite

News about space launch
Landspace launches 6 satellites with enhanced Zhuque-2 rocket

Chinese launch startup Landspace sent six satellites into orbit Saturday with the fifth launch of its Zhuque-2 series methane-fueled rocket. The post Landspace launches 6 satellites with enhanced Zhuque-2 rocket appeared first on SpaceNews.

News about space launch
Launch Roundup: Orbital launches from five countries planned

On the heels of a busy April, activity is ramping up for May with launches… The post Launch Roundup: Orbital launches from five countries planned appeared first on NASASpaceFlight.com.


Newsletter sign-up

Weekly statistics, charts and insights to help you stay on top of the space industry.